EW4258 Weather Reports


Display with metric or nautical units.
time (UTC)temp
F
wind
direction
speed
MPH
gust
MPH
rain 1hr
in
rain 24hr
in
rain mn
in
humidity
%
barometer
mb
20210804160111 59 292 2.0 1.0 0.00 0.00 0.00 82 1014.4
20210804155110 60 225 2.0 2.0 0.00 0.00 0.00 82 1014.4
20210804154110 60 315 1.0 3.0 0.00 0.00 0.00 81 1014.4
20210804153112 60 292 1.0 0.0 0.00 0.00 0.00 80 1014.4
20210804152110 61 315 1.0 3.0 0.00 0.00 0.00 79 1014.5
20210804151110 61 292 1.0 1.0 0.00 0.00 0.00 78 1014.5
20210804150110 62 337 1.0 3.0 0.00 0.00 0.00 77 1014.5
20210804145110 62 360 0.0 2.0 0.00 0.00 0.00 77 1014.5
20210804144110 62 67 0.0 1.0 0.00 0.00 0.00 77 1014.4
20210804143110 62 67 0.0 0.0 0.00 0.00 0.00 75 1014.4
20210804142115 63 225 0.0 0.0 0.00 0.00 0.00 74 1014.4
20210804141115 63 225 0.0 0.0 0.00 0.00 0.00 72 1014.4
20210804140114 63 225 0.0 0.0 0.00 0.00 0.00 73 1014.6
20210804135114 63 225 0.0 0.0 0.00 0.00 0.00 72 1014.6
20210804134114 63 225 0.0 0.0 0.00 0.00 0.00 72 1014.7
20210804133114 64 225 0.0 0.0 0.00 0.00 0.00 73 1014.7
20210804132114 64 225 0.0 0.0 0.00 0.00 0.00 71 1014.8
20210804131114 64 225 0.0 0.0 0.00 0.00 0.00 70 1014.8
20210804130114 65 225 1.0 0.0 0.00 0.00 0.00 71 1014.9
20210804125114 65 112 1.0 2.0 0.00 0.00 0.00 71 1014.9
20210804124114 65 225 1.0 0.0 0.00 0.00 0.00 71 1015.3
20210804123114 64 247 1.0 2.0 0.00 0.00 0.00 70 1015.3
20210804122115 64 225 1.0 0.0 0.00 0.00 0.00 71 1015.6
20210804121114 65 247 0.0 2.0 0.00 0.00 0.00 70 1015.6
20210804120114 64 315 0.0 0.0 0.00 0.00 0.00 72 1015.8
20210804115113 64 90 1.0 1.0 0.00 0.00 0.00 73 1015.8
20210804114113 63 225 0.0 0.0 0.00 0.00 0.00 73 1016.1
20210804113113 63 247 0.0 0.0 0.00 0.00 0.00 75 1016.1
20210804112113 63 67 1.0 1.0 0.00 0.00 0.00 74 1016.3
20210804111115 62 67 0.0 0.0 0.00 0.00 0.00 75 1016.3
20210804110113 62 90 0.0 1.0 0.00 0.00 0.00 75 1016.5
20210804105113 62 135 0.0 1.0 0.00 0.03 0.00 75 1016.5
20210804104113 62 270 0.0 0.0 0.00 0.03 0.00 75 1016.5
20210804103113 62 270 1.0 0.0 0.00 0.03 0.00 76 1016.5
20210804102113 61 90 1.0 0.0 0.00 0.03 0.00 77 1016.4
20210804101113 61 202 0.0 0.0 0.00 0.03 0.00 78 1016.4
20210804100113 61 90 0.0 2.0 0.00 0.03 0.00 78 1016.7
20210804095114 60 135 0.0 0.0 0.00 0.03 0.00 79 1016.7
20210804094112 60 180 0.0 0.0 0.00 0.03 0.00 79 1017.0
20210804093112 60 225 0.0 0.0 0.00 0.03 0.00 79 1017.0
20210804092112 60 112 0.0 0.0 0.00 0.03 0.00 80 1017.1
20210804091112 60 135 0.0 1.0 0.00 0.03 0.00 80 1017.1
20210804090112 59 157 0.0 0.0 0.00 0.03 0.00 80 1017.2
20210804085112 60 247 0.0 1.0 0.00 0.05 0.00 80 1017.2
20210804084112 60 135 0.0 0.0 0.00 0.05 0.00 81 1016.9
20210804083112 60 112 0.0 0.0 0.00 0.05 0.00 81 1016.9
20210804082112 59 45 0.0 0.0 0.00 0.05 0.00 83 1017.1
20210804081112 59 270 0.0 0.0 0.00 0.05 0.00 84 1017.1
20210804080112 58 315 0.0 1.0 0.00 0.05 0.00 84 1017.1
20210804075111 58 315 1.0 0.0 0.00 0.05 0.00 85 1017.1
20210804074112 57 270 0.0 2.0 0.00 0.05 0.00 85 1017.1
20210804073111 57 315 1.0 0.0 0.00 0.05 0.00 85 1017.1
20210804072111 57 360 0.0 0.0 0.00 0.05 0.00 85 1017.0
20210804071111 57 337 0.0 2.0 0.00 0.05 0.00 84 1017.0
20210804070111 57 315 0.0 0.0 0.00 0.05 0.00 84 1017.1
20210804065111 57 360 1.0 1.0 0.00 0.05 0.00 85 1017.1
20210804064111 57 90 0.0 1.0 0.00 0.05 0.00 86 1017.2
20210804063111 57 67 0.0 0.0 0.00 0.05 0.00 87 1017.2
20210804062112 56 135 0.0 0.0 0.00 0.05 0.00 87 1017.4
20210804061111 56 135 0.0 0.0 0.00 0.05 0.00 86 1017.4
20210804060111 56 90 0.0 0.0 0.00 0.05 0.00 87 1017.1
20210804055111 56 360 0.0 0.0 0.00 0.05 0.00 87 1017.1
20210804054111 56 360 0.0 0.0 0.00 0.05 0.00 87 1017.2
20210804053111 55 360 0.0 0.0 0.00 0.05 0.00 86 1017.2
20210804052111 55 360 0.0 0.0 0.00 0.05 0.00 86 1017.1
20210804051111 55 360 0.0 0.0 0.00 0.05 0.00 86 1017.1
20210804050111 55 360 0.0 0.0 0.00 0.05 0.00 86 1016.9
20210804045111 55 360 0.0 0.0 0.00 0.05 0.00 87 1016.9
20210804044111 55 360 0.0 0.0 0.00 0.05 0.00 88 1017.0
20210804043112 55 360 0.0 0.0 0.00 0.05 0.00 89 1017.0
20210804042110 55 360 0.0 0.0 0.00 0.05 0.00 89 1017.0
20210804041110 55 360 0.0 0.0 0.00 0.05 0.00 90 1017.0
20210804040111 55 360 0.0 0.0 0.00 0.05 0.00 91 1016.9
20210804035110 55 360 0.0 0.0 0.00 0.05 0.00 91 1016.9
20210804034111 55 360 0.0 0.0 0.00 0.05 0.00 91 1016.9
20210804033111 55 360 0.0 0.0 0.00 0.05 0.00 90 1016.9
20210804032111 55 360 0.0 0.0 0.00 0.05 0.00 90 1016.9
20210804031111 55 360 0.0 0.0 0.00 0.05 0.00 90 1016.9
20210804030111 55 360 0.0 0.0 0.00 0.05 0.00 90 1016.9
20210804025110 55 360 0.0 0.0 0.00 0.05 0.00 90 1016.9
20210804024110 55 360 0.0 0.0 0.00 0.05 0.00 90 1016.9
20210804023110 55 360 0.0 0.0 0.00 0.05 0.00 90 1016.9
20210804022110 55 360 0.0 0.0 0.00 0.05 0.00 90 1017.1
20210804021110 55 360 0.0 0.0 0.00 0.05 0.00 90 1017.1
20210804020110 55 360 0.0 0.0 0.00 0.05 0.00 89 1017.0
20210804015110 55 360 0.0 0.0 0.00 0.05 0.00 89 1017.0
20210804014110 55 360 0.0 0.0 0.00 0.05 0.00 89 1017.1
20210804013110 55 360 0.0 0.0 0.00 0.05 0.00 89 1017.1
20210804012110 55 360 0.0 0.0 0.00 0.05 0.00 89 1016.9
20210804011109 55 360 0.0 0.0 0.00 0.05 0.00 89 1016.9
20210804010110 55 360 0.0 0.0 0.00 0.05 0.00 89 1017.3
20210804005110 55 360 0.0 0.0 0.00 0.05 0.00 88 1017.3
20210804004109 55 360 0.0 0.0 0.00 0.05 0.00 88 1017.2
20210804003109 55 360 0.0 0.0 0.00 0.05 0.00 88 1017.2
20210804002114 56 360 0.0 0.0 0.00 0.05 0.00 87 1017.4
20210804001114 56 360 0.0 0.0 0.00 0.05 0.00 87 1017.4
20210804000114 56 360 0.0 0.0 0.00 0.05 0.00 87 1017.6
20210803235114 56 360 0.0 0.0 0.00 0.05 0.00 86 1017.6
20210803234115 56 360 0.0 0.0 0.00 0.05 0.00 85 1017.8
20210803233114 56 360 0.0 0.0 0.00 0.05 0.00 85 1017.8
20210803232114 56 360 0.0 0.0 0.00 0.05 0.00 85 1017.6
20210803231113 57 360 0.0 0.0 0.00 0.05 0.00 84 1017.6
20210803230114 57 360 0.0 0.0 0.00 0.05 0.00 83 1017.8
20210803225113 57 360 0.0 0.0 0.00 0.05 0.00 83 1017.8
20210803224113 57 360 0.0 0.0 0.00 0.05 0.00 82 1017.8
20210803223113 58 360 0.0 0.0 0.00 0.05 0.00 82 1017.8
20210803222113 58 360 0.0 0.0 0.00 0.05 0.00 82 1017.9
20210803221113 58 360 0.0 0.0 0.00 0.05 0.00 82 1017.9
20210803220113 58 360 0.0 0.0 0.00 0.05 0.00 83 1017.8
20210803215113 58 360 0.0 0.0 0.00 0.05 0.05 83 1017.8
20210803214113 58 360 0.0 0.0 0.00 0.05 0.05 83 1018.0
20210803213113 58 360 0.0 0.0 0.00 0.05 0.05 84 1018.0
20210803212112 58 360 0.0 0.0 0.00 0.05 0.05 85 1017.8
20210803211112 58 360 0.0 0.0 0.00 0.05 0.05 86 1017.8
20210803210112 58 360 0.0 0.0 0.00 0.05 0.05 86 1017.9
20210803205112 58 22 0.0 0.0 0.00 0.05 0.05 86 1017.9
20210803204112 58 90 1.0 0.0 0.00 0.05 0.05 85 1017.8
20210803203112 58 90 1.0 3.0 0.00 0.05 0.05 85 1017.8
20210803202112 58 360 0.0 1.0 0.00 0.05 0.05 85 1017.8
20210803201112 58 360 0.0 0.0 0.00 0.05 0.05 84 1017.8
20210803200112 58 360 0.0 0.0 0.00 0.05 0.05 84 1017.6
20210803195111 58 315 0.0 0.0 0.00 0.05 0.05 83 1017.6
20210803194112 58 247 0.0 0.0 0.00 0.05 0.05 83 1017.4
20210803193111 59 247 1.0 0.0 0.00 0.05 0.05 84 1017.4
20210803192112 59 90 1.0 2.0 0.00 0.05 0.05 84 1017.2
20210803191111 59 270 0.0 0.0 0.00 0.05 0.05 82 1017.2
20210803190111 59 360 0.0 0.0 0.00 0.05 0.05 82 1017.1
20210803185111 59 22 2.0 2.0 0.00 0.05 0.05 82 1017.1
20210803184111 59 337 1.0 3.0 0.00 0.05 0.05 82 1016.9
20210803183111 59 337 1.0 3.0 0.00 0.05 0.05 82 1016.9
20210803182111 60 315 2.0 1.0 0.00 0.05 0.05 81 1016.2
20210803181111 60 337 2.0 4.0 0.00 0.05 0.05 80 1016.2
20210803180111 60 337 2.0 3.0 0.00 0.05 0.05 79 1016.4
20210803175111 61 315 3.0 5.0 0.00 0.05 0.05 78 1016.4
20210803174110 61 292 4.0 5.0 0.00 0.05 0.05 77 1016.2
20210803173110 62 292 3.0 6.0 0.00 0.05 0.05 76 1016.2
20210803172110 62 315 4.0 5.0 0.00 0.05 0.05 74 1015.7
20210803171110 63 315 2.0 3.0 0.00 0.05 0.05 74 1015.7
20210803170110 64 247 1.0 2.0 0.00 0.05 0.05 73 1015.4
20210803165110 65 360 0.0 2.0 0.00 0.05 0.05 74 1015.4
20210803164110 66 315 0.0 2.0 0.00 0.05 0.05 74 1015.1
20210803163110 66 360 0.0 0.0 0.00 0.05 0.05 75 1015.1
20210803162110 65 135 0.0 0.0 0.00 0.05 0.05 77 1015.1
20210803161110 65 135 1.0 2.0 0.00 0.05 0.05 77 1015.1